Showing default

ION SCV-016, 62628

Orbit data source: Space-Track

ION SCV-016, 62628 is a payload satellite owned by D-ORBIT (IT) in SSO that was launched on Tue, 14 Jan 2025 UTC via an FALCON 9 launch vehicle from the Air Force Western Test Range (AFWTR). Payload-class satellites include a variety of spacecraft equipped with specific instruments for various scientific and technological missions. These include communications satellites like Starlink; space stations such as the ISS; scientific satellites like the Hubble; Earth observation satellites from companies like Planet Labs, Umbra, and HawkEye 360; GPS; miniature CubeSats for education and research; and military/defense satellites.

Loading next visibility...
Identifier
62628, 2025-009V
Orbit
SSO
Country
Flag of ITIT
Related business
Manufacturer
D-ORBIT
Mission
Operational Commercial Technology
Bus & Motor
ION-SC, PM200
Mass
220 kg wet, 150 kg dry
Launch date (UTC)
2025-01-14 (1 year ago)
Launch vehicle
FALCON 9
Launch site
Air Force Western Test Range (AFWTR)
Object type
Payload
Rocket body
Debris
Shape & HBR
Box, 1.9 m
Radar Cross Section
0.240 m², Large (>1 m²)

Expand to show TLE details & history
Last TLE update: 12 hours ago

TLE from 12 hours ago
0 ION SCV-016
1 62628U 25009V   26171.34192334  .00021847  00000-0  45487-3 0  9999
2 62628  97.4298 209.0866 0588732  96.1006 270.7564 14.51251994 76006
Epoch: 2026-06-20T08:12Z
TLE epoch observation values (Epoch: 2026-06-20T08:12:22.176Z)
Latitude
0.00002°
Longitude
177.43627°
Altitude
743.636 km
Speed
7.473 km/s
True Right ascension
13h 56m 20s
True Declination
0° 00' 00"
Sunlit
Object was in full shadow at epoch
Visualization orbit readout
Latitude
Unknown
Longitude
Unknown
Altitude
Unknown
Speed
Unknown
Apparent Right ascension
Unknown
Apparent Declination
Unknown
Sunlit
N/A
Visualization observer readout
Local Sidereal Time
07:21:50
Azimuth
Unknown
Elevation
Unknown
Doppler factor
Unknown
Orbital elements
Apogee altitude
1,136.414 km
Perigee altitude
300.798 km
Semi-major axis
7,096.743 km
Eccentricity
0.05887
Inclination
97.4298°
RAAN
209.0866°
Arg. of periapsis
96.1006°
True anomaly
264.01961°
Mean anomaly
270.7564°
Eccentric anomaly
267.38672°
Mean motion
3.6304 °/min
Orbital period
99.16 mins
BSTAR
0.00045487
Loading maneuver chart data...
Computing Atmospheric mass density...
Loading historical data...
Loading historical data...
Loading historical data...
Loading historical data...
Loading historical data...
Loading historical data...
Loading historical data...

Documentation

Showing up to 5 results
|